Time,TemperatureF,DewpointF,PressureIn,WindDirection,WindDirectionDegrees,WindSpeedMPH,WindSpeedGustMPH,Humidity,HourlyPrecipIn,Conditions,Clouds,dailyrainin,SolarRadiationWatts/m^2,SoftwareType,DateUTC
2013-01-08 00:09:00,22.5,12.0,30.26,SSE,164,4.0,6.0,65,0.00,,,0.00,0,weatherlink.com 1.10,2013-01-08 05:09:00,
2013-01-08 00:23:00,22.4,13.0,30.26,SE,129,4.0,8.0,66,0.00,,,0.00,0,weatherlink.com 1.10,2013-01-08 05:23:00,
2013-01-08 00:38:00,22.5,12.0,30.26,SSE,167,7.0,9.0,65,0.00,,,0.00,0,weatherlink.com 1.10,2013-01-08 05:38:00,
2013-01-08 00:53:00,23.3,12.0,30.25,SSE,165,3.0,8.0,63,0.00,,,0.00,0,weatherlink.com 1.10,2013-01-08 05:53:00,
2013-01-08 01:08:00,23.0,12.0,30.26,SSE,165,1.0,6.0,62,0.00,,,0.00,0,weatherlink.com 1.10,2013-01-08 06:08:00,
2013-01-08 01:23:00,22.4,12.0,30.25,SSE,156,9.0,9.0,64,0.00,,,0.00,0,weatherlink.com 1.10,2013-01-08 06:23:00,
2013-01-08 01:38:00,23.5,11.0,30.25,South,189,10.0,13.0,60,0.00,,,0.00,0,weatherlink.com 1.10,2013-01-08 06:38:00,
2013-01-08 01:53:00,25.3,12.0,30.25,South,175,8.0,14.0,58,0.00,,,0.00,0,weatherlink.com 1.10,2013-01-08 06:53:00,
2013-01-08 02:08:00,25.8,12.0,30.25,South,171,6.0,13.0,57,0.00,,,0.00,0,weatherlink.com 1.10,2013-01-08 07:08:00,
2013-01-08 02:23:00,26.6,12.0,30.24,SW,224,8.0,13.0,55,0.00,,,0.00,0,weatherlink.com 1.10,2013-01-08 07:23:00,
2013-01-08 02:38:00,27.2,12.0,30.24,SSW,211,7.0,16.0,54,0.00,,,0.00,0,weatherlink.com 1.10,2013-01-08 07:38:00,
2013-01-08 02:53:00,27.8,13.0,30.24,South,188,9.0,14.0,55,0.00,,,0.00,0,weatherlink.com 1.10,2013-01-08 07:53:00,
2013-01-08 03:09:00,29.0,14.0,30.23,SSW,207,9.0,21.0,54,0.00,,,0.00,0,weatherlink.com 1.10,2013-01-08 08:09:00,
2013-01-08 03:24:00,29.4,14.0,30.23,South,184,9.0,18.0,53,0.00,,,0.00,0,weatherlink.com 1.10,2013-01-08 08:24:00,
2013-01-08 03:39:00,29.4,15.0,30.23,South,190,4.0,24.0,56,0.00,,,0.00,0,weatherlink.com 1.10,2013-01-08 08:39:00,
2013-01-08 03:54:00,29.3,16.0,30.22,SW,219,5.0,13.0,59,0.00,,,0.00,0,weatherlink.com 1.10,2013-01-08 08:54:00,
2013-01-08 04:09:00,29.1,17.0,30.21,SW,223,6.0,14.0,62,0.00,,,0.00,0,weatherlink.com 1.10,2013-01-08 09:09:00,
2013-01-08 04:24:00,29.0,18.0,30.21,SSW,194,1.0,10.0,63,0.00,,,0.00,0,weatherlink.com 1.10,2013-01-08 09:24:00,
2013-01-08 04:39:00,28.7,17.0,30.20,SSW,213,3.0,13.0,63,0.00,,,0.00,0,weatherlink.com 1.10,2013-01-08 09:39:00,
2013-01-08 04:54:00,27.9,17.0,30.21,SSW,211,8.0,12.0,64,0.00,,,0.00,0,weatherlink.com 1.10,2013-01-08 09:54:00,
2013-01-08 05:09:00,28.2,20.0,30.20,SSW,202,14.0,19.0,71,0.00,,,0.00,0,weatherlink.com 1.10,2013-01-08 10:09:00,
2013-01-08 05:24:00,29.5,21.0,30.20,SSW,210,9.0,24.0,70,0.00,,,0.00,0,weatherlink.com 1.10,2013-01-08 10:24:00,
2013-01-08 05:39:00,30.1,21.0,30.20,SSW,207,9.0,19.0,69,0.00,,,0.00,0,weatherlink.com 1.10,2013-01-08 10:39:00,
2013-01-08 05:54:00,30.1,21.0,30.20,SSW,195,11.0,16.0,70,0.00,,,0.00,0,weatherlink.com 1.10,2013-01-08 10:54:00,
2013-01-08 06:09:00,30.3,22.0,30.20,SW,223,7.0,14.0,70,0.00,,,0.00,0,weatherlink.com 1.10,2013-01-08 11:09:00,
2013-01-08 06:24:00,29.4,20.0,30.20,SW,227,0.0,4.0,69,0.00,,,0.00,0,weatherlink.com 1.10,2013-01-08 11:24:00,
2013-01-08 06:39:00,28.5,20.0,30.20,SW,227,0.0,0.0,70,0.00,,,0.00,0,weatherlink.com 1.10,2013-01-08 11:39:00,
2013-01-08 06:54:00,27.8,21.0,30.20,SW,227,0.0,2.0,74,0.00,,,0.00,0,weatherlink.com 1.10,2013-01-08 11:54:00,
2013-01-08 07:09:00,27.8,21.0,30.21,SW,221,4.0,5.0,74,0.00,,,0.00,0,weatherlink.com 1.10,2013-01-08 12:09:00,
2013-01-08 07:24:00,27.6,20.0,30.21,SW,219,0.0,5.0,74,0.00,,,0.00,9,weatherlink.com 1.10,2013-01-08 12:24:00,
2013-01-08 07:39:00,27.0,20.0,30.23,SW,219,0.0,0.0,75,0.00,,,0.00,18,weatherlink.com 1.10,2013-01-08 12:39:00,
2013-01-08 07:54:00,26.4,20.0,30.23,SW,215,6.0,7.0,76,0.00,,,0.00,23,weatherlink.com 1.10,2013-01-08 12:54:00,
2013-01-08 08:09:00,26.3,20.0,30.23,SSW,210,5.0,8.0,78,0.00,,,0.00,32,weatherlink.com 1.10,2013-01-08 13:09:00,
2013-01-08 08:24:00,26.9,21.0,30.24,SSW,209,4.0,7.0,78,0.00,,,0.00,40,weatherlink.com 1.10,2013-01-08 13:24:00,
2013-01-08 08:39:00,28.7,22.0,30.24,South,185,4.0,9.0,75,0.00,,,0.00,172,weatherlink.com 1.10,2013-01-08 13:39:00,
2013-01-08 08:54:00,30.6,22.0,30.24,SSW,213,2.0,8.0,69,0.00,,,0.00,202,weatherlink.com 1.10,2013-01-08 13:54:00,
2013-01-08 09:09:00,31.9,22.0,30.24,SW,217,9.0,11.0,66,0.00,,,0.00,287,weatherlink.com 1.10,2013-01-08 14:09:00,
2013-01-08 09:24:00,33.4,22.0,30.24,SW,215,6.0,13.0,63,0.00,,,0.00,302,weatherlink.com 1.10,2013-01-08 14:24:00,
2013-01-08 09:39:00,34.9,22.0,30.24,SW,221,8.0,13.0,59,0.00,,,0.00,341,weatherlink.com 1.10,2013-01-08 14:39:00,
2013-01-08 09:54:00,35.2,22.0,30.24,SW,215,7.0,13.0,58,0.00,,,0.00,227,weatherlink.com 1.10,2013-01-08 14:54:00,
2013-01-08 10:09:00,36.5,22.0,30.24,SW,229,5.0,8.0,56,0.00,,,0.00,144,weatherlink.com 1.10,2013-01-08 15:09:00,
2013-01-08 10:24:00,37.6,22.0,30.24,SSW,197,6.0,11.0,53,0.00,,,0.00,267,weatherlink.com 1.10,2013-01-08 15:24:00,
2013-01-08 10:39:00,38.8,22.0,30.23,South,188,6.0,10.0,51,0.00,,,0.00,392,weatherlink.com 1.10,2013-01-08 15:39:00,
2013-01-08 10:54:00,40.1,22.0,30.23,SW,217,8.0,12.0,48,0.00,,,0.00,406,weatherlink.com 1.10,2013-01-08 15:54:00,
2013-01-08 11:09:00,40.6,21.0,30.22,SW,228,12.0,15.0,45,0.00,,,0.00,441,weatherlink.com 1.10,2013-01-08 16:09:00,
2013-01-08 11:24:00,40.9,20.0,30.21,SW,217,10.0,18.0,44,0.00,,,0.00,299,weatherlink.com 1.10,2013-01-08 16:24:00,
2013-01-08 11:40:00,41.5,20.0,30.21,SSW,196,11.0,15.0,43,0.00,,,0.00,392,weatherlink.com 1.10,2013-01-08 16:40:00,
2013-01-08 11:55:00,41.9,20.0,30.20,SSE,162,4.0,12.0,42,0.00,,,0.00,404,weatherlink.com 1.10,2013-01-08 16:55:00,
2013-01-08 12:10:00,41.9,20.0,30.20,SW,217,3.0,19.0,42,0.00,,,0.00,292,weatherlink.com 1.10,2013-01-08 17:10:00,
2013-01-08 12:40:00,42.9,21.0,30.20,WSW,240,5.0,18.0,42,0.00,,,0.00,343,weatherlink.com 1.10,2013-01-08 17:40:00,
2013-01-08 12:55:00,42.9,21.0,30.19,SW,229,7.0,12.0,42,0.00,,,0.00,278,weatherlink.com 1.10,2013-01-08 17:55:00,
2013-01-08 13:10:00,43.1,21.0,30.19,South,181,4.0,9.0,41,0.00,,,0.00,290,weatherlink.com 1.10,2013-01-08 18:10:00,
2013-01-08 13:25:00,43.3,21.0,30.19,SSW,196,2.0,12.0,41,0.00,,,0.00,272,weatherlink.com 1.10,2013-01-08 18:25:00,
2013-01-08 13:40:00,43.3,21.0,30.18,WSW,254,9.0,14.0,41,0.00,,,0.00,230,weatherlink.com 1.10,2013-01-08 18:40:00,
2013-01-08 13:55:00,43.2,21.0,30.18,SW,236,3.0,13.0,41,0.00,,,0.00,265,weatherlink.com 1.10,2013-01-08 18:55:00,
2013-01-08 14:10:00,43.6,21.0,30.19,South,186,9.0,15.0,40,0.00,,,0.00,199,weatherlink.com 1.10,2013-01-08 19:10:00,
2013-01-08 14:25:00,43.5,20.0,30.19,West,259,5.0,12.0,39,0.00,,,0.00,197,weatherlink.com 1.10,2013-01-08 19:25:00,
2013-01-08 14:40:00,43.6,20.0,30.20,SW,229,6.0,12.0,39,0.00,,,0.00,186,weatherlink.com 1.10,2013-01-08 19:40:00,
2013-01-08 14:55:00,43.3,20.0,30.20,SSW,211,6.0,14.0,39,0.00,,,0.00,158,weatherlink.com 1.10,2013-01-08 19:55:00,
2013-01-08 15:10:00,42.9,21.0,30.20,SW,218,6.0,11.0,41,0.00,,,0.00,153,weatherlink.com 1.10,2013-01-08 20:10:00,
2013-01-08 15:25:00,42.9,21.0,30.20,SW,218,7.0,11.0,41,0.00,,,0.00,172,weatherlink.com 1.10,2013-01-08 20:25:00,
2013-01-08 15:40:00,43.1,20.0,30.20,SW,232,6.0,10.0,40,0.00,,,0.00,116,weatherlink.com 1.10,2013-01-08 20:40:00,
2013-01-08 15:55:00,42.3,21.0,30.20,SSW,193,3.0,10.0,42,0.00,,,0.00,74,weatherlink.com 1.10,2013-01-08 20:55:00,
2013-01-08 16:10:00,41.8,20.0,30.21,SW,229,6.0,8.0,42,0.00,,,0.00,16,weatherlink.com 1.10,2013-01-08 21:10:00,
2013-01-08 16:25:00,41.1,20.0,30.21,SW,229,1.0,8.0,43,0.00,,,0.00,7,weatherlink.com 1.10,2013-01-08 21:25:00,
2013-01-08 16:40:00,40.5,21.0,30.21,SW,231,3.0,7.0,45,0.00,,,0.00,0,weatherlink.com 1.10,2013-01-08 21:40:00,
2013-01-08 16:55:00,39.6,20.0,30.22,SW,231,5.0,6.0,46,0.00,,,0.00,0,weatherlink.com 1.10,2013-01-08 21:55:00,
2013-01-08 17:10:00,38.6,20.0,30.22,SSW,208,3.0,7.0,47,0.00,,,0.00,0,weatherlink.com 1.10,2013-01-08 22:10:00,
2013-01-08 17:25:00,38.2,19.0,30.23,SSW,207,0.0,7.0,47,0.00,,,0.00,0,weatherlink.com 1.10,2013-01-08 22:25:00,
2013-01-08 17:40:00,37.8,20.0,30.23,SSW,207,4.0,6.0,48,0.00,,,0.00,0,weatherlink.com 1.10,2013-01-08 22:40:00,
2013-01-08 17:55:00,37.2,20.0,30.24,SSW,207,0.0,5.0,50,0.00,,,0.00,0,weatherlink.com 1.10,2013-01-08 22:55:00,
2013-01-08 18:10:00,36.3,20.0,30.24,SSW,207,2.0,6.0,51,0.00,,,0.00,0,weatherlink.com 1.10,2013-01-08 23:10:00,
2013-01-08 18:25:00,35.9,20.0,30.25,SSW,207,6.0,7.0,52,0.00,,,0.00,0,weatherlink.com 1.10,2013-01-08 23:25:00,
2013-01-08 18:40:00,36.0,20.0,30.25,SW,225,7.0,12.0,52,0.00,,,0.00,0,weatherlink.com 1.10,2013-01-08 23:40:00,
2013-01-08 18:55:00,36.2,20.0,30.25,WSW,241,9.0,11.0,53,0.00,,,0.00,0,weatherlink.com 1.10,2013-01-08 23:55:00,
2013-01-08 19:10:00,35.9,21.0,30.26,WSW,257,6.0,11.0,54,0.00,,,0.00,0,weatherlink.com 1.10,2013-01-09 00:10:00,
2013-01-08 19:25:00,35.3,20.0,30.27,WSW,252,2.0,9.0,55,0.00,,,0.00,0,weatherlink.com 1.10,2013-01-09 00:25:00,
2013-01-08 19:40:00,34.6,21.0,30.27,WSW,246,0.0,8.0,57,0.00,,,0.00,0,weatherlink.com 1.10,2013-01-09 00:40:00,
2013-01-08 19:55:00,34.1,21.0,30.27,WSW,246,0.0,4.0,58,0.00,,,0.00,0,weatherlink.com 1.10,2013-01-09 00:55:00,
2013-01-08 20:10:00,33.4,20.0,30.28,WSW,246,0.0,2.0,59,0.00,,,0.00,0,weatherlink.com 1.10,2013-01-09 01:10:00,
2013-01-08 20:25:00,32.8,20.0,30.29,WSW,246,0.0,2.0,60,0.00,,,0.00,0,weatherlink.com 1.10,2013-01-09 01:25:00,
2013-01-08 20:40:00,32.4,20.0,30.28,WSW,246,2.0,4.0,61,0.00,,,0.00,0,weatherlink.com 1.10,2013-01-09 01:40:00,
2013-01-08 20:55:00,31.9,20.0,30.28,WSW,246,1.0,5.0,62,0.00,,,0.00,0,weatherlink.com 1.10,2013-01-09 01:55:00,
2013-01-08 21:10:00,31.6,21.0,30.28,WSW,245,4.0,5.0,64,0.00,,,0.00,0,weatherlink.com 1.10,2013-01-09 02:10:00,
2013-01-08 21:25:00,31.9,20.0,30.28,WSW,241,0.0,8.0,63,0.00,,,0.00,0,weatherlink.com 1.10,2013-01-09 02:25:00,
2013-01-08 21:40:00,32.4,20.0,30.28,WSW,237,5.0,8.0,61,0.00,,,0.00,0,weatherlink.com 1.10,2013-01-09 02:40:00,
2013-01-08 21:55:00,32.7,20.0,30.28,WSW,243,4.0,9.0,61,0.00,,,0.00,0,weatherlink.com 1.10,2013-01-09 02:55:00,
2013-01-08 22:10:00,32.4,20.0,30.28,WSW,242,2.0,6.0,61,0.00,,,0.00,0,weatherlink.com 1.10,2013-01-09 03:10:00,
2013-01-08 22:25:00,32.1,20.0,30.28,WSW,242,0.0,4.0,62,0.00,,,0.00,0,weatherlink.com 1.10,2013-01-09 03:25:00,
2013-01-08 22:40:00,31.8,20.0,30.28,WSW,242,0.0,2.0,62,0.00,,,0.00,0,weatherlink.com 1.10,2013-01-09 03:40:00,
2013-01-08 22:55:00,31.6,20.0,30.28,WSW,242,0.0,5.0,62,0.00,,,0.00,0,weatherlink.com 1.10,2013-01-09 03:55:00,
2013-01-08 23:10:00,31.5,20.0,30.29,WSW,242,0.0,4.0,62,0.00,,,0.00,0,weatherlink.com 1.10,2013-01-09 04:10:00,
2013-01-08 23:25:00,31.3,20.0,30.29,WSW,242,1.0,5.0,62,0.00,,,0.00,0,weatherlink.com 1.10,2013-01-09 04:25:00,
2013-01-08 23:40:00,31.2,20.0,30.29,WSW,243,4.0,5.0,63,0.00,,,0.00,0,weatherlink.com 1.10,2013-01-09 04:40:00,
2013-01-08 23:55:00,31.2,19.0,30.29,WSW,243,0.0,6.0,62,0.00,,,0.00,0,weatherlink.com 1.10,2013-01-09 04:55:00,